Flag for U.S.A. Weather past 2 weeks in Sunnyvale, California, U.S.A.

Now
55 °F

Partly cloudy.


Feels Like: 55 °F
Forecast: 54 / 60 °F
Wind: No wind

Location: Moffett Field

Current Time: Dec 20, 2014 at 8:00:42 AM

Latest Report: Dec 20, 2014 at 6:56 AM


Visibility: 8 mi

Pressure: 30.17 "Hg

Humidity: 96%

Dew point: 54 °F

Location of SunnyvaleLocation

Historic Weather in Sunnyvale — Graph

°F

Sunnyvale temperature yesterday

Maximum temperature yesterday: 58 °F (at 10:56 AM)
Minimum temperature yesterday: 55 °F (at 12:56 AM)
Average temperature yesterday: 56 °F

Past Weeks' High & Low Weather Summary

 TemperatureHumidityPressure
High69 °F (Dec 6, 1:56 PM)100% (Dec 6, 8:56 AM)30.24 "Hg (Dec 6, 8:56 AM)
Low43 °F (Dec 13, 6:56 AM)53% (Dec 8, 2:56 PM)29.57 "Hg (Dec 11, 7:56 AM)
Average56 °F85%30.04 "Hg
* Reported Dec 5 6:56 AM — Dec 20 6:56 AM, Sunnyvale, Weather by CustomWeather, © 2014

Note: Actual official high and low records may vary slightly from our data, if they occured in-between our weather recording intervals... More about our weather records

Advertising

Sunnyvale weather history for previous 24 hours

 ConditionsComfort  
Time TempWeatherWind HumidityBarometerVisibility
6:56 AM
Dec 20
55 °FPartly cloudy.No wind96%30.17 "Hg8 mi
6:04 AM55 °FFog.No wind94%30.16 "Hg3 mi
5:56 AM55 °FFog.No wind96%30.16 "Hg4 mi
4:56 AM56 °FFog.No wind93%30.15 "Hg6 mi
3:56 AM55 °FFog.3 mph96%30.15 "Hg5 mi
2:56 AM56 °FMostly cloudy.No wind93%30.14 "Hg10 mi
1:56 AM56 °FMostly cloudy.No wind93%30.15 "Hg10 mi
12:56 AM56 °FOvercast.No wind93%30.15 "Hg10 mi
11:56 PM
Dec 19
56 °FLight rain. Mostly cloudy.No wind93%30.16 "Hg10 mi
10:56 PM56 °FOvercast.No wind93%30.17 "Hg10 mi
9:56 PM57 °FMostly cloudy.6 mph87%30.16 "Hg10 mi
8:56 PM56 °FOvercast.6 mph90%30.14 "Hg10 mi
7:56 PM56 °FMostly cloudy.No wind90%30.14 "Hg10 mi
6:56 PM56 °FMostly cloudy.3 mph90%30.15 "Hg10 mi
5:56 PM55 °FLight rain. Fog.5 mph90%30.16 "Hg5 mi
4:56 PM57 °FLight rain. Overcast.7 mph83%30.14 "Hg10 mi
3:56 PM57 °FLight rain. Mostly cloudy.12 mph83%30.14 "Hg10 mi
2:56 PM57 °FLight rain. Overcast.9 mph87%30.13 "Hg10 mi
1:56 PM57 °FLight rain. Overcast.13 mph87%30.14 "Hg10 mi
12:56 PM57 °FOvercast.13 mph87%30.15 "Hg10 mi
11:56 AM57 °FLight rain. Mostly cloudy.10 mph87%30.16 "Hg10 mi
10:56 AM58 °FCloudy.17 mph72%30.16 "Hg10 mi
9:56 AM57 °FMostly cloudy.12 mph74%30.19 "Hg10 mi
8:56 AM56 °FOvercast.10 mph75%30.18 "Hg10 mi
Weather by CustomWeather, © 2014

See weather overviewHow to use our weather pages